This is the latest recevied weather packets stored in our database for station/object K0CVS. If no packets are shown the sender has not sent any weather packets the latest 10 day(s).
| Time | Temp. | Humidity | Pressure | Rain* | Wind** | Luminosity | Snow |
|---|---|---|---|---|---|---|---|
| 1777841821 | 28.89° C | 31% | 1009.6 hPa | 0 mm | - | 512 W/m² | - |
| 1777841518 | 28.33° C | 31% | 1009.7 hPa | 0 mm | - | 550 W/m² | - |
| 1777841215 | 28.33° C | 32% | 1009.7 hPa | 0 mm | - | 608 W/m² | - |
| 1777840913 | 27.78° C | 32% | 1009.9 hPa | 0 mm | - | 565 W/m² | - |
| 1777840609 | 27.78° C | 33% | 1009.9 hPa | 0 mm | - | 306 W/m² | - |
| 1777840307 | 28.33° C | 30% | 1010.2 hPa | 0 mm | - | 591 W/m² | - |
| 1777840004 | 28.33° C | 30% | 1010.1 hPa | 0 mm | - | 602 W/m² | - |
| 1777839702 | 28.33° C | 32% | 1010.3 hPa | 0 mm | - | 611 W/m² | - |
| 1777839400 | 28.33° C | 33% | 1010.4 hPa | 0 mm | - | 621 W/m² | - |
| 1777839097 | 28.33° C | 33% | 1010.3 hPa | 0 mm | - | 636 W/m² | - |
| 1777838793 | 27.78° C | 33% | 1010.4 hPa | 0 mm | - | 532 W/m² | - |
| 1777838490 | 27.78° C | 36% | 1010.4 hPa | 0 mm | - | 652 W/m² | - |
| 1777838182 | 27.78° C | 37% | 1010.5 hPa | 0 mm | - | 660 W/m² | - |
| 1777837878 | 27.78° C | 39% | 1010.7 hPa | 0 mm | - | 669 W/m² | - |
| 1777837576 | 27.78° C | 37% | 1010.8 hPa | 0 mm | - | 615 W/m² | - |
| 1777837276 | 27.22° C | 36% | 1010.9 hPa | 0 mm | - | 687 W/m² | - |
| 1777836973 | 27.22° C | 36% | 1011 hPa | 0 mm | - | 694 W/m² | - |
| 1777836668 | 27.22° C | 35% | 1010.8 hPa | 0 mm | - | 702 W/m² | - |
| 1777836364 | 27.22° C | 35% | 1010.9 hPa | 0 mm | - | 710 W/m² | - |
| 1777836060 | 26.67° C | 36% | 1011.1 hPa | 0 mm | - | 709 W/m² | - |
| 1777835757 | 26.67° C | 35% | 1011.3 hPa | 0 mm | - | 719 W/m² | - |
| 1777835454 | 26.67° C | 36% | 1011.3 hPa | 0 mm | - | 723 W/m² | - |
| 1777835151 | 26.67° C | 36% | 1011.3 hPa | 0 mm | - | 724 W/m² | - |
| 1777834848 | 26.67° C | 35% | 1011.4 hPa | 0 mm | - | 741 W/m² | - |
| 1777834544 | 26.67° C | 38% | 1011.4 hPa | 0 mm | - | 741 W/m² | - |
* Rain latest hour (hover to see other rain measurements)
** Current wind speed in m/s (hover to see current wind gust speed)